When you browse on this site, cookies collect data to enhance your experience and personalize the content and advertising you see.
Visit our Privacy Policy to learn more. By continuing to use the site, you agree to this use of cookies and data.
  • Em Portugal
  • Lista de países
  • Para 7 dias
  • Temperatura da água
  • Mapas de satélite
  • Mapa do tempo
  • Widgets de tempo
  • user-avatar
    Iniciar Sessão

    Previsão horária em Glowczewice

    Hoje, 26 Junho, Quarta-feira

    Tempo Temperatura Precipitação Vento Pressão Humidade
    00:00 +21°C° 0 mm 2 m/s 752 mmHg 90%
    01:00 +21°C° 0 mm 2 m/s 752 mmHg 86%
    02:00 +21°C° 0 mm 2 m/s 751 mmHg 88%
    03:00 +22°C° 0 mm 1 m/s 751 mmHg 90%
    04:00 +22°C° 0 mm 1 m/s 750 mmHg 91%
    05:00 +24°C° 0 mm 2 m/s 750 mmHg 84%
    06:00 +26°C° 0 mm 2 m/s 751 mmHg 77%
    07:00 +27°C° 0 mm 2 m/s 751 mmHg 70%
    08:00 +29°C° 0 mm 3 m/s 750 mmHg 62%
    09:00 +31°C° 0 mm 3 m/s 750 mmHg 55%
    10:00 +34°C° 0 mm 4 m/s 750 mmHg 48%
    11:00 +35°C° 0 mm 4 m/s 750 mmHg 47%
    12:00 +35°C° 0 mm 5 m/s 750 mmHg 47%
    13:00 +35°C° 0 mm 5 m/s 749 mmHg 46%
    14:00 +35°C° 0.1 mm 5 m/s 749 mmHg 46%
    15:00 +35°C° 0.1 mm 5 m/s 748 mmHg 45%
    16:00 +35°C° 0.1 mm 5 m/s 748 mmHg 45%
    17:00 +33°C° 0 mm 5 m/s 747 mmHg 52%
    18:00 +30°C° 0 mm 5 m/s 747 mmHg 59%
    19:00 +28°C° 0 mm 5 m/s 747 mmHg 67%
    20:00 +26°C° 0 mm 5 m/s 747 mmHg 72%
    21:00 +23°C° 0 mm 5 m/s 747 mmHg 78%
    22:00 +22°C° 0 mm 6 m/s 747 mmHg 84%
    23:00 +21°C° 0 mm 6 m/s 747 mmHg 83%

    Amanhã, 27 Junho, Quinta-feira

    Tempo Temperatura Precipitação Vento Pressão Humidade
    00:00 +20°C° 0 mm 6 m/s 747 mmHg 83%
    01:00 +17°C° 0 mm 5 m/s 747 mmHg 82%
    02:00 +17°C° 0 mm 6 m/s 747 mmHg 81%
    03:00 +17°C° 0 mm 6 m/s 747 mmHg 80%
    04:00 +16°C° 0 mm 6 m/s 747 mmHg 79%
    05:00 +16°C° 0 mm 6 m/s 747 mmHg 77%
    06:00 +16°C° 0 mm 6 m/s 747 mmHg 76%
    07:00 +16°C° 0 mm 6 m/s 747 mmHg 74%
    08:00 +16°C° 0 mm 6 m/s 748 mmHg 71%
    09:00 +17°C° 0 mm 6 m/s 748 mmHg 68%
    10:00 +19°C° 0 mm 6 m/s 748 mmHg 65%
    11:00 +19°C° 0 mm 6 m/s 748 mmHg 65%
    12:00 +20°C° 0 mm 6 m/s 749 mmHg 66%
    13:00 +20°C° 0 mm 6 m/s 749 mmHg 66%
    14:00 +20°C° 0 mm 5 m/s 749 mmHg 69%
    15:00 +19°C° 0 mm 5 m/s 749 mmHg 72%
    16:00 +19°C° 0 mm 5 m/s 749 mmHg 75%
    17:00 +19°C° 0.2 mm 4 m/s 749 mmHg 77%
    18:00 +18°C° 0.2 mm 4 m/s 749 mmHg 79%
    19:00 +18°C° 0.2 mm 3 m/s 749 mmHg 82%
    20:00 +16°C° 0 mm 2 m/s 750 mmHg 86%
    21:00 +15°C° 0 mm 2 m/s 750 mmHg 91%
    22:00 +14°C° 0 mm 1 m/s 750 mmHg 96%
    23:00 +14°C° 0 mm 1 m/s 750 mmHg 93%

    Depois de amanhã, 28 Junho, Sexta-feira

    Tempo Temperatura Precipitação Vento Pressão Humidade
    00:00 +14°C° 0 mm 1 m/s 750 mmHg 90%
    01:00 +13°C° 0 mm 1 m/s 750 mmHg 87%
    02:00 +13°C° 0 mm 1 m/s 750 mmHg 86%
    03:00 +13°C° 0 mm 2 m/s 750 mmHg 85%
    04:00 +13°C° 0 mm 2 m/s 750 mmHg 84%
    05:00 +14°C° 0 mm 2 m/s 750 mmHg 78%
    06:00 +16°C° 0 mm 3 m/s 750 mmHg 71%
    07:00 +18°C° 0 mm 3 m/s 750 mmHg 65%
    08:00 +20°C° 0 mm 4 m/s 751 mmHg 57%
    09:00 +21°C° 0 mm 4 m/s 751 mmHg 50%
    10:00 +22°C° 0 mm 5 m/s 751 mmHg 42%
    11:00 +22°C° 0 mm 5 m/s 751 mmHg 39%
    12:00 +23°C° 0 mm 5 m/s 751 mmHg 36%
    13:00 +23°C° 0 mm 6 m/s 751 mmHg 34%
    14:00 +23°C° 0 mm 5 m/s 751 mmHg 35%
    15:00 +22°C° 0 mm 5 m/s 751 mmHg 37%
    16:00 +22°C° 0 mm 5 m/s 752 mmHg 39%
    17:00 +21°C° 0 mm 4 m/s 752 mmHg 44%
    18:00 +20°C° 0 mm 4 m/s 752 mmHg 50%
    19:00 +18°C° 0 mm 3 m/s 752 mmHg 55%
    20:00 +17°C° 0 mm 2 m/s 752 mmHg 63%
    21:00 +15°C° 0 mm 2 m/s 752 mmHg 70%
    22:00 +13°C° 0 mm 1 m/s 752 mmHg 78%
    23:00 +13°C° 0 mm 1 m/s 752 mmHg 79%

    29 Junho, Sábado

    Tempo Temperatura Precipitação Vento Pressão Humidade
    00:00 +13°C° 0 mm 1 m/s 752 mmHg 81%
    01:00 +13°C° 0 mm 1 m/s 751 mmHg 83%
    02:00 +13°C° 0 mm 1 m/s 751 mmHg 85%
    03:00 +13°C° 0 mm 2 m/s 751 mmHg 87%
    04:00 +13°C° 0 mm 2 m/s 751 mmHg 89%
    05:00 +15°C° 0 mm 2 m/s 751 mmHg 81%
    06:00 +17°C° 0 mm 3 m/s 751 mmHg 74%
    07:00 +19°C° 0 mm 4 m/s 751 mmHg 66%
    08:00 +21°C° 0 mm 4 m/s 751 mmHg 61%
    09:00 +22°C° 0 mm 4 m/s 751 mmHg 55%
    10:00 +25°C° 0 mm 4 m/s 751 mmHg 49%
    11:00 +25°C° 0 mm 4 m/s 751 mmHg 47%
    12:00 +26°C° 0 mm 4 m/s 751 mmHg 45%
    13:00 +27°C° 0 mm 4 m/s 751 mmHg 43%
    14:00 +27°C° 0 mm 4 m/s 750 mmHg 44%
    15:00 +26°C° 0 mm 4 m/s 750 mmHg 45%
    16:00 +26°C° 0 mm 4 m/s 750 mmHg 47%
    17:00 +25°C° 0 mm 4 m/s 749 mmHg 52%
    18:00 +24°C° 0 mm 3 m/s 749 mmHg 57%
    19:00 +23°C° 0 mm 2 m/s 749 mmHg 62%
    20:00 +21°C° 0 mm 2 m/s 749 mmHg 68%
    21:00 +19°C° 0 mm 2 m/s 749 mmHg 75%
    22:00 +18°C° 0 mm 2 m/s 749 mmHg 82%
    23:00 +17°C° 0 mm 2 m/s 748 mmHg 83%

    30 Junho, Domingo

    Tempo Temperatura Precipitação Vento Pressão Humidade
    00:00 +17°C° 0 mm 2 m/s 748 mmHg 85%
    01:00 +17°C° 0 mm 2 m/s 748 mmHg 86%
    02:00 +16°C° 0 mm 2 m/s 748 mmHg 87%
    03:00 +16°C° 0 mm 2 m/s 748 mmHg 89%
    04:00 +16°C° 0 mm 2 m/s 748 mmHg 90%
    05:00 +18°C° 0 mm 2 m/s 748 mmHg 79%
    06:00 +20°C° 0 mm 3 m/s 748 mmHg 69%
    07:00 +22°C° 0 mm 3 m/s 748 mmHg 59%
    08:00 +25°C° 0 mm 4 m/s 747 mmHg 52%
    09:00 +27°C° 0 mm 4 m/s 747 mmHg 45%
    10:00 +29°C° 0 mm 4 m/s 747 mmHg 38%
    11:00 +30°C° 0 mm 5 m/s 747 mmHg 37%
    12:00 +32°C° 0 mm 5 m/s 746 mmHg 36%
    13:00 +32°C° 0 mm 6 m/s 746 mmHg 36%
    14:00 +32°C° 0 mm 6 m/s 746 mmHg 37%
    15:00 +32°C° 0 mm 6 m/s 745 mmHg 38%
    16:00 +32°C° 0 mm 6 m/s 744 mmHg 39%
    17:00 +30°C° 0 mm 5 m/s 744 mmHg 43%
    18:00 +29°C° 0 mm 4 m/s 744 mmHg 48%
    19:00 +28°C° 0 mm 3 m/s 743 mmHg 53%
    20:00 +26°C° 0 mm 3 m/s 743 mmHg 60%
    21:00 +23°C° 0 mm 4 m/s 743 mmHg 67%
    22:00 +21°C° 0 mm 4 m/s 743 mmHg 75%
    23:00 +21°C° 0 mm 4 m/s 744 mmHg 74%

    1 Julho, Segunda-feira

    Tempo Temperatura Precipitação Vento Pressão Humidade
    00:00 +20°C° 0 mm 4 m/s 744 mmHg 73%
    01:00 +19°C° 0 mm 4 m/s 744 mmHg 73%
    02:00 +18°C° 0 mm 4 m/s 744 mmHg 78%
    03:00 +16°C° 0 mm 3 m/s 744 mmHg 83%
    04:00 +14°C° 0 mm 3 m/s 744 mmHg 88%
    05:00 +16°C° 0 mm 3 m/s 745 mmHg 84%
    06:00 +17°C° 0 mm 4 m/s 745 mmHg 80%
    07:00 +18°C° 0 mm 4 m/s 745 mmHg 76%
    08:00 +19°C° 0 mm 4 m/s 745 mmHg 71%
    09:00 +19°C° 0 mm 4 m/s 745 mmHg 67%
    10:00 +20°C° 0 mm 4 m/s 745 mmHg 63%
    11:00 +22°C° 0 mm 5 m/s 745 mmHg 57%
    12:00 +23°C° 0 mm 5 m/s 745 mmHg 51%
    13:00 +25°C° 0 mm 5 m/s 745 mmHg 45%
    14:00 +25°C° 0 mm 5 m/s 744 mmHg 47%
    15:00 +23°C° 0 mm 4 m/s 744 mmHg 49%
    16:00 +23°C° 0 mm 4 m/s 744 mmHg 51%
    17:00 +22°C° 0.1 mm 3 m/s 743 mmHg 57%
    18:00 +21°C° 0.1 mm 2 m/s 743 mmHg 64%
    19:00 +20°C° 0.1 mm 2 m/s 742 mmHg 70%
    20:00 +19°C° 0.6 mm 2 m/s 742 mmHg 77%
    21:00 +18°C° 0.6 mm 2 m/s 742 mmHg 84%
    22:00 +16°C° 0.6 mm 2 m/s 742 mmHg 92%
    23:00 +16°C° 0.3 mm 3 m/s 742 mmHg 92%
    Mostrar mais